Regional Weather Roundup
Issued by NWS Northern Indiana

Home | Current Version | Previous Version | Text Only | Print | Product List | Glossary On
Versions: 1 2 3 4 5 6 7 8 9 10 11 12 13 14 15 16 17 18 19 20 21 22 23 24 25 26 27 28 29 30 31 32 33 34 35 36 37 38 39 40 41 42 43 44 45 46 47 48 49 50
000
ASUS43 KIWX 060710
RWRIWX

KIWX WEATHER ROUNDUP
NATIONAL WEATHER SERVICE NORTHERN INDIANA
300 AM EDT FRI MAY 06 2016

NOTE: "FAIR" INDICATES FEW OR NO CLOUDS BELOW 12,000 FEET WITH NO
SIGNIFICANT WEATHER AND/OR OBSTRUCTIONS TO VISIBILITY.

* THESE STATIONS ARE NOT UNDER NWS QUALITY CONTROL. THEY ALSO MAY NOT
  REPORT WEATHER SUCH AS PRECIPITATION OR FOG.

INZ001>027-060800-
NORTHERN INDIANA

CITY           SKY/WX    TMP DP  RH WIND       PRES   REMARKS
GARY*          CLEAR     40  40 100 CALM      29.99S
VALPARAISO     CLEAR     41  39  93 W3        29.98F
MICHIGAN CITY* CLEAR     36  36 100 CALM      29.99S
LAPORTE*       CLEAR     40  40 100 CALM      29.98F
KNOX*          CLEAR     37  36  93 CALM      29.98S
SOUTH BEND     CLEAR     40  37  89 CALM      29.97F
GOSHEN         CLEAR     42  36  79 NW3       29.96S
MONTICELLO*    CLEAR     43  38  83 CALM      29.97F
LOGANSPORT*    CLEAR     45  39  81 CALM      29.98S
ROCHESTER*     CLEAR     45  41  87 W3        29.97S
WARSAW*        CLEAR     41  37  87 W3        29.96S
ANGOLA*          N/A     46  39  76 NW3       29.94S
FORT WAYNE     CLEAR     48  39  71 NW7       29.95S
HUNTINGTON*    CLEAR    N/A N/A N/A CALM      29.95S
PERU/GRISSOM   CLEAR     43  41  93 W3        29.95F
MARION*        CLEAR     45  40  83 NW3       29.96S

$$
INZ028>050-060800-
CENTRAL INDIANA

CITY           SKY/WX    TMP DP  RH WIND       PRES   REMARKS
LAFAYETTE      CLEAR     40  39  97 W3        29.99S
KOKOMO*        CLEAR     43  37  81 NW7       29.96F
MUNCIE*        CLEAR     47  40  76 NW5       29.95S
INDIANAPOLIS   PTCLDY    45  39  79 NW7       29.96S

$$
MIZ043>046-050>051-056>058-064>065-071>073-077>080-060800-
SOUTHWEST LOWER MICHIGAN

CITY           SKY/WX    TMP DP  RH WIND       PRES   REMARKS
BATTLE CREEK   CLEAR     46  37  71 W3        29.95S
BENTON HARBOR  CLEAR     37  35  92 CALM      29.97F
COLDWATER*     CLEAR     44  38  82 CALM      29.94S
HILLSDALE*     CLEAR     47  38  69 CALM      29.93S
HOLLAND        CLEAR    N/A N/A N/A CALM      29.97S
GRAND RAPIDS   CLEAR     46  39  76 W5        29.94F
KALAMAZOO      CLEAR     44  34  67 NW5       29.95F
STURGIS*       CLEAR     45  35  68 N3        29.94S
THREE RIVERS*  FAIR      42  35  75 CALM      29.96S

$$
OHZ001>008-015>018-024>025-060800-
NORTHWEST OHIO

CITY           SKY/WX    TMP DP  RH WIND       PRES   REMARKS
WAUSEON*         N/A     52 N/A N/A NW7       29.92S
DEFIANCE       MOCLDY    50  41  71 NW7       29.92F
FINDLAY        PTCLDY    45  36  70 CALM      29.90S
TOLEDO EXPRESS PTCLDY    48  39  71 NW5       29.91S
TOLEDO METCALF CLEAR     49  34  56 NW6       29.91S
LIMA           PTCLDY    45  41  86 NW6       29.91S

$$
AND FOR LAKE MICHIGAN COASTAL AND OPEN LAKE BUOY OBSERVATIONS

STATION/POSITION TEMP    WIND        PRES    VSBY  WAVE
                 AIR SEA DIR/SP/G                  HT/PER
                 (F)     (DEG/KT/KT) (MB)    (MI)  (FT/S)
CALUMET HARBOR    47     230/  3/  3 1014.9S
MICHIGAN CITY     43     150/  2/  2   N/A
BURNS HARBOR      45     220/  1/  4 1015.9S
SAINT JOSEPH      44     210/  3/  5 1015.6F
SOUTH LAKE BUOY   41 40  230/  6/  6 1015.0F         1/ 5
4 MI NW BRIDGMAN  45 47                N/A           2/ 5

$$
&&



USA.gov is the U.S. government's official web portal to all federal, state and local government web resources and services.